Pineville, WV

4:03 AM EST on December 11, 2019 (GMT -0500)
Pineville

Weather History for KI16 - October, 2019

Change the Weather History Date:

Thursday, October 3, 2019

  Actual Average (KBKW) Record (KBKW)
Temperature  
Mean Temperature 78 °F 57 °F  
Max Temperature 94 °F 67 °F 85 °F (1941)
Min Temperature 61 °F 47 °F 21 °F (1974)
Degree Days  
Heating Degree Days 0 9  
Month to date heating degree days 25  
Since 1 July heating degree days 159  
Cooling Degree Days 12 0  
Month to date cooling degree days 2  
Year to date cooling degree days 552  
Growing Degree Days 28 (Base 50)    
Moisture  
Dew Point 59 °F    
Average Humidity 64    
Maximum Humidity 96    
Minimum Humidity 23    
Precipitation  
Precipitation 0.00 in 0.08 in 0.61 in (1961)
Month to date precipitation 0.24  
Year to date precipitation 32.91  
Snow  
Snow 0.00 in 0.00 in T in (1987)
Month to date snowfall 0.0  
Since 1 September snowfall 0.0  
Snow Depth -    
Sea Level Pressure  
Sea Level Pressure 30.12 in    
Wind  
Wind Speed - (North)    
Max Wind Speed -    
Max Gust Speed -    
Visibility 10 miles    
Events      
T = Trace of Precipitation, MM = Missing Value Source: NWS Daily Summary

Daily Weather History Graph

Daily Weather History Graph

Search for Another Location

Airport or City:

Astronomy

Oct. 03, 2019 Rise Set
Actual Time 7:23 AM EDT 7:06 PM EDT
Civil Twilight 6:57 AM EDT 7:32 PM EDT
Nautical Twilight 6:26 AM EDT 8:03 PM EDT
Astronomical Twilight 5:56 AM EDT 8:33 PM EDT
Moon 12:47 PM EDT (10/3) 10:50 PM EDT (10/3)
Length of Visible Light 12h 35m
Length of Day
11h 43m
Waxing Crescent, 29% of the Moon is Illuminated
Oct 3
Waxing Crescent
Oct 5
First Quarter
Oct 13
Full
Oct 21
Last Quarter
Oct 27
New

Hourly Weather History & Observations

Time (EDT) Temp. Heat Index Dew Point Humidity Pressure Visibility Wind Dir Wind Speed Gust Speed Precip Events Conditions
12:15 AM 66.6 °F - 61.9 °F 85% 30.10 in 10.0 mi North - - N/A   Clear
12:35 AM 66.2 °F - 61.9 °F 86% 30.10 in 10.0 mi North - - N/A   Clear
12:55 AM 66.2 °F - 61.3 °F 84% 30.10 in 10.0 mi North - - N/A   Clear
1:15 AM 65.5 °F - 60.8 °F 85% 30.09 in 10.0 mi North - - N/A   Clear
1:35 AM 65.1 °F - 61.2 °F 87% 30.09 in 10.0 mi North - - N/A   Clear
1:55 AM 64.8 °F - 61.5 °F 89% 30.10 in 10.0 mi North - - N/A   Clear
2:15 AM 64.6 °F - 61.5 °F 90% 30.10 in 10.0 mi North - - N/A   Clear
2:35 AM 64.0 °F - 61.3 °F 91% 30.10 in 10.0 mi North - - N/A   Clear
2:55 AM 63.7 °F - 61.0 °F 91% 30.10 in 10.0 mi North - - N/A   Clear
3:15 AM 63.5 °F - 60.8 °F 91% 30.10 in 10.0 mi North - - N/A   Clear
3:35 AM 63.7 °F - 61.0 °F 91% 30.10 in 10.0 mi North - - N/A   Clear
3:55 AM 63.0 °F - 60.4 °F 91% 30.11 in 10.0 mi North - - N/A   Clear
4:15 AM 62.8 °F - 60.4 °F 92% 30.11 in 10.0 mi North - - N/A   Clear
4:35 AM 62.6 °F - 60.8 °F 94% 30.11 in 10.0 mi North - - N/A   Clear
4:55 AM 62.1 °F - 59.9 °F 93% 30.12 in 10.0 mi North - - N/A   Clear
5:15 AM 62.1 °F - 59.9 °F 93% 30.12 in 10.0 mi North - - N/A   Clear
5:35 AM 61.9 °F - 59.9 °F 93% 30.13 in 10.0 mi North - - N/A   Clear
5:55 AM 61.7 °F - 60.1 °F 94% 30.14 in 7.0 mi North - - N/A   Clear
6:15 AM 61.7 °F - 59.9 °F 94% 30.15 in 7.0 mi North - - N/A   Clear
6:35 AM 61.5 °F - 59.5 °F 93% 30.15 in 7.0 mi North - - N/A   Clear
6:55 AM 61.3 °F - 59.7 °F 94% 30.15 in 7.0 mi North - - N/A   Clear
7:15 AM 61.2 °F - 59.7 °F 95% 30.15 in 7.0 mi North - - N/A   Clear
7:35 AM 61.0 °F - 59.2 °F 94% 30.15 in 7.0 mi North - - N/A   Clear
7:55 AM 61.0 °F - 59.4 °F 94% 30.16 in 7.0 mi North - - N/A   Clear
8:15 AM 61.3 °F - 59.9 °F 95% 30.16 in 5.0 mi North - - N/A   Clear
8:35 AM 62.1 °F - 60.8 °F 96% 30.16 in 10.0 mi North - - N/A   Clear
8:55 AM 63.5 °F - 61.0 °F 91% 30.16 in 10.0 mi North - - N/A   Clear
9:15 AM 66.0 °F - 62.4 °F 88% 30.16 in 10.0 mi North - - N/A   Clear
9:35 AM 70.0 °F - 63.7 °F 80% 30.16 in 10.0 mi North - - N/A   Clear
9:55 AM 74.1 °F - 64.2 °F 71% 30.16 in 10.0 mi North - - N/A   Clear
10:15 AM 77.7 °F - 64.2 °F 63% 30.16 in 10.0 mi North - - N/A   Clear
10:35 AM 80.8 °F 82.1 °F 63.1 °F 55% 30.16 in 10.0 mi North - - N/A   Clear
10:55 AM 82.9 °F 83.8 °F 62.6 °F 50% 30.16 in 10.0 mi North - - N/A   Clear
11:15 AM 84.2 °F 84.8 °F 62.1 °F 47% 30.15 in 10.0 mi North - - N/A   Clear
11:35 AM 86.0 °F 86.1 °F 61.3 °F 43% 30.15 in 10.0 mi North - - N/A   Clear
11:55 AM 86.9 °F 87.0 °F 61.5 °F 42% 30.14 in 10.0 mi North - - N/A   Clear
12:15 PM 88.2 °F 88.1 °F 60.8 °F 40% 30.14 in 10.0 mi North - - N/A   Clear
12:35 PM 88.3 °F 87.8 °F 59.9 °F 38% 30.13 in 10.0 mi North - - N/A   Clear
12:55 PM 90.3 °F 89.6 °F 59.4 °F 35% 30.12 in 10.0 mi North - - N/A   Clear
1:15 PM 90.3 °F 89.3 °F 58.1 °F 34% 30.12 in 10.0 mi North - - N/A   Clear
1:35 PM 91.0 °F 89.4 °F 56.1 °F 31% 30.11 in 10.0 mi North - - N/A   Clear
1:55 PM 91.4 °F 89.6 °F 55.9 °F 30% 30.10 in 10.0 mi North - - N/A   Clear
2:15 PM 92.3 °F 90.2 °F 54.7 °F 28% 30.09 in 10.0 mi North - - N/A   Clear
2:35 PM 93.2 °F 91.3 °F 55.4 °F 28% 30.09 in 10.0 mi North - - N/A   Clear
2:55 PM 94.5 °F 92.3 °F 54.1 °F 26% 30.09 in 10.0 mi North - - N/A   Clear
3:15 PM 94.8 °F 92.5 °F 53.8 °F 25% 30.09 in 10.0 mi North - - N/A   Clear
3:35 PM 94.5 °F 92.1 °F 53.1 °F 25% 30.08 in 10.0 mi North - - N/A   Clear
3:55 PM 94.5 °F - 52.2 °F 24% 30.08 in 10.0 mi North - - N/A   Clear
4:15 PM 94.6 °F - 51.8 °F 23% 30.07 in 10.0 mi North - - N/A   Clear
4:35 PM 93.7 °F - 52.0 °F 24% 30.07 in 10.0 mi North - - N/A   Clear
4:55 PM 94.6 °F - 51.6 °F 23% 30.07 in 10.0 mi North - - N/A   Clear
5:15 PM 94.5 °F - 50.9 °F 23% 30.07 in 10.0 mi North - - N/A   Clear
5:35 PM 91.0 °F - 52.3 °F 27% 30.07 in 10.0 mi North - - N/A   Clear
5:55 PM 87.8 °F 86.1 °F 55.0 °F 33% 30.07 in 10.0 mi North - - N/A   Clear
6:15 PM 86.2 °F 84.7 °F 55.6 °F 35% 30.08 in 10.0 mi North - - N/A   Clear
6:35 PM 82.9 °F 82.4 °F 56.8 °F 41% 30.08 in 10.0 mi North - - N/A   Clear
6:55 PM 80.8 °F 81.0 °F 57.6 °F 45% 30.08 in 10.0 mi North - - N/A   Clear
7:15 PM 78.3 °F - 59.0 °F 51% 30.09 in 10.0 mi North - - N/A   Clear
7:35 PM 76.8 °F - 59.0 °F 54% 30.09 in 10.0 mi North - - N/A   Clear
7:55 PM 75.0 °F - 60.1 °F 60% 30.10 in 10.0 mi North - - N/A   Clear
8:15 PM 74.3 °F - 59.5 °F 60% 30.10 in 10.0 mi North - - N/A   Clear
8:35 PM 73.0 °F - 59.2 °F 62% 30.10 in 10.0 mi North - - N/A   Clear
8:55 PM 72.1 °F - 59.0 °F 63% 30.11 in 10.0 mi North - - N/A   Clear
9:15 PM 71.4 °F - 59.2 °F 65% 30.11 in 10.0 mi North - - N/A   Clear
9:35 PM 70.7 °F - 59.4 °F 67% 30.12 in 10.0 mi North - - N/A   Clear
9:55 PM 69.8 °F - 59.5 °F 70% 30.12 in 10.0 mi North - - N/A   Clear
10:15 PM 69.1 °F - 59.4 °F 71% 30.12 in 10.0 mi North - - N/A   Clear
10:35 PM 68.2 °F - 59.4 °F 73% 30.12 in 10.0 mi North - - N/A   Clear
10:55 PM 68.0 °F - 59.5 °F 74% 30.12 in 10.0 mi North - - N/A   Clear
11:15 PM 67.3 °F - 59.2 °F 75% 30.13 in 10.0 mi North - - N/A   Clear
11:35 PM 67.3 °F - 59.5 °F 76% 30.13 in 10.0 mi North - - N/A   Clear
11:55 PM 66.6 °F - 59.0 °F 77% 30.12 in 10.0 mi North - - N/A   Clear